Location: Bergnerzell
(49.1816°N, 10.2565°E)
Time: 14:51:57
(UTC+00:00)

TIANMU-1 17 - Visible Passes

Search period start: 04 October 2024 00:00
Search period end: 14 October 2024 00:00
Orbit: 508 x 519 km, 97.5° (Epoch: 04 October)

Date Brightness Start Highest point End Pass type
(mag) Time Alt. Az. Time Alt. Az. Time Alt. Az.
04 Oct ? 03:56:18 10° SSE 03:59:55 52° ENE 04:03:34 10° N visible
04 Oct ? 18:31:59 10° NNW 18:34:41 19° WNW 18:37:22 10° WSW visible
05 Oct ? 03:41:12 10° SE 03:44:37 35° ENE 03:48:04 10° N visible
05 Oct ? 18:16:15 10° N 18:19:25 26° WNW 18:22:35 10° SW visible
06 Oct ? 03:26:14 10° ESE 03:29:19 25° ENE 03:32:26 10° N visible
06 Oct ? 18:00:36 10° N 18:04:06 37° WNW 18:07:35 10° SW visible
07 Oct ? 03:11:26 10° ESE 03:14:01 18° ENE 03:16:37 10° NNE visible
07 Oct ? 04:44:11 10° S 04:47:45 43° W 04:51:21 10° NNW visible
07 Oct ? 17:45:01 10° N 17:48:42 55° WNW 17:52:23 10° SSW visible
08 Oct ? 02:56:55 10° E 02:58:43 13° ENE 03:00:31 10° NNE visible
08 Oct ? 04:28:33 10° S 04:32:15 66° WSW 04:35:59 10° NNW visible
08 Oct ? 17:29:28 10° NNE 17:33:16 83° W 17:37:01 10° SSW visible
09 Oct ? 04:13:01 10° SSE 04:16:45 82° ENE 04:20:30 10° NNW visible
09 Oct ? 17:13:58 10° NNE 17:17:44 66° ESE 17:21:29 10° S visible
09 Oct ? 18:49:23 10° NNW 18:51:16 13° WNW 18:53:10 10° W visible
10 Oct ? 03:57:36 10° SSE 04:01:15 54° ENE 04:04:55 10° N visible
10 Oct ? 18:33:13 10° NNW 18:35:53 19° WNW 18:38:32 10° WSW visible
11 Oct ? 03:42:18 10° SE 03:45:45 36° ENE 03:49:13 10° N visible
11 Oct ? 18:17:16 10° N 18:20:26 26° WNW 18:23:35 10° WSW visible
12 Oct ? 03:27:08 10° ESE 03:30:15 26° ENE 03:33:23 10° N visible
12 Oct ? 05:00:55 10° SSW 05:04:11 29° W 05:07:29 10° NW visible
12 Oct ? 18:01:25 10° N 18:04:55 36° WNW 18:08:23 10° SW visible
13 Oct ? 03:12:07 10° ESE 03:14:44 18° ENE 03:17:23 10° NNE visible
13 Oct ? 04:44:55 10° S 04:48:29 42° W 04:52:04 10° NNW visible
13 Oct ? 17:45:38 10° N 17:49:20 54° WNW 17:53:00 10° SSW visible
